Regional Weather Roundup
Issued by NWS

Home | Current Version | Previous Version | Text Only | Print | Product List | Glossary Off
Versions: 1 2 3 4 5 6 7 8 9 10 11 12 13 14 15 16 17 18 19 20 21 22 23 24 25 26 27 28 29 30 31 32 33 34 35 36 37 38 39 40 41 42 43 44 45 46 47 48 49 50

000
ASUS43 KLSX 020110
RWRMO

WEATHER SUMMARY FOR MISSOURI
NATIONAL WEATHER SERVICE SPRINGFIELD MO
800 PM CDT SUN MAY 01 2016

NOTE: "FAIR" INDICATES FEW OR NO CLOUDS BELOW 12,000 FEET WITH NO
       SIGNIFICANT WEATHER AND/OR OBSTRUCTIONS TO VISIBILITY.
       CURRENT SKY AND/OR WEATHER CONDITIONS ARE NOT AVAILABLE FOR
       CHILLICOTHE AND FARMINGTON.

MOZ001>031-035>038-043-044-053-054-020200-
...NORTHERN AND WESTERN MISSOURI...

CITY           SKY/WX    TMP DP  RH WIND       PRES   REMARKS
KANSAS CTY INT CLOUDY    50  45  83 N10       30.09R
KANSAS C DTWN  CLOUDY    54  44  69 NW9       30.08R
LEE`S SUMMIT   CLOUDY    54  46  74 N12       30.07R
ST JOSEPH      CLOUDY    51  44  77 N8        30.10R
CHILLICOTHE      N/A     52  45  77 VRB5      30.08R
KIRKSVILLE     CLOUDY    49  46  90 NW8       30.04S

$$
MOZ066>068-077>081-088>096-101>105-020200-
...SOUTHWEST MISSOURI...

CITY           SKY/WX    TMP DP  RH WIND       PRES   REMARKS
SPRINGFIELD    MOCLDY    59  43  55 W5        30.04R
JOPLIN         CLEAR     56  47  71 VRB3      30.04F
BRANSON        PTCLDY    59  46  63 NW7       30.04R

$$
MOZ032>034-039>042-045>050-055>058-069>072-020200-
...CENTRAL MISSOURI...

CITY           SKY/WX    TMP DP  RH WIND       PRES   REMARKS
COLUMBIA       PTCLDY    57  48  72 NW13      30.02R
JEFFERSON CITY CLOUDY    61  46  57 NW10      30.01R
ROLLA          CLOUDY    59  45  59 W6        30.00R
SEDALIA        MOCLDY    57  50  77 NW10      30.05R
WHITEMAN AFB   CLOUDY    55  50  81 N8        30.04R
WARRENSBURG    PTCLDY    54  46  76 NW6       30.05R
OSAGE BEACH    CLOUDY    61  39  44 W3        30.02R

$$
MOZ051-052-059>065-020200-
...EAST CENTRAL MISSOURI...

CITY           SKY/WX    TMP DP  RH WIND       PRES   REMARKS
ST LOUIS INTL  PTCLDY    64  44  48 NW9       29.96R
SPIRIT OF STL  CLEAR     61  46  57 W5        29.96R
ST CHARLES     CLEAR     63  47  55 W16G23    29.95R

$$
MOZ072>076-082>087-097>100-106>115-020200-
...SOUTH CENTRAL AND SOUTHEAST MISSOURI...

CITY           SKY/WX    TMP DP  RH WIND       PRES   REMARKS
CAPE GIRARDEAU CLEAR     71  61  70 SW8       29.90R
FARMINGTON     CLEAR     66  49  54 NW10G18   29.96R
POPLAR BLUFF   CLEAR     72  54  53 W5        29.92R
WEST PLAINS    CLEAR     63  46  54 NW8       30.00R

$$




USA.gov is the U.S. government's official web portal to all federal, state and local government web resources and services.